Location: ??????
(38.0677°N, 22.9870°E)
Time: 09:51:33
(UTC+00:00)

SL-4 R/B - Pass Details

Date: 23 May 2024
Orbit: 412 x 600 km, 51.6° (Epoch: 24 June)

Event Time Altitude Azimuth Distance (km) Brightness Sun altitude
Exits shadow 01:12:02 48° 201° (SSW) 756 2.3 -19.4°
Maximum altitude 01:13:04 69° 138° (SE) 623 2.2 -19.2°
Drops below altitude 10° 01:17:29 10° 55° (NE) 1,932 6.0 -18.7°
Sets 01:19:49 0° 53° (NE) 2,849 7.3 -18.3°
